Tracking 26443 objects as of 5-Dec-2022
HD Live streaming from Space Station
objects crossing your sky now

CZ-4B DEB

Track CZ-4B DEB now!
10-day predictions


NORAD ID: 29536
Int'l Code: 2006-015C
Perigee: 600.9 km
Apogee: 822.4 km
Inclination: 97.7 °
Period: 98.9 minutes
Semi major axis: 7082 km
RCS: 0.0177 m2 (small)
Launch date: April 26, 2006
Source: People's Republic of China (PRC)
Launch site: Taiyaun Space Center, China (TSC)

Note: This is SATELLITE DEBRIS
aabbcc
Your satellite tracking list
Your tracking list is empty




NASA's NSSDC Master Catalog

Two Line Element Set (TLE):
1 29536U 06015C   22338.42680663  .00001714  00000-0  33527-3 0  9996
2 29536  97.7426 326.9542 0156352 153.7334 207.1903 14.56497620874040
Source of the keplerian elements: AFSPC